Weather History for YWLM - December, 2013

Change the Weather History Date:

Wednesday, December 25, 2013

  Actual Average Record
Temperature  
Mean Temperature 69 °F -  
Max Temperature 72 °F - - ()
Min Temperature 66 °F - - ()
Cooling Degree Days 4    
Growing Degree Days 19 (Base 50)    
Moisture  
Dew Point 65 °F    
Average Humidity 86    
Maximum Humidity 94    
Minimum Humidity 69    
Precipitation  
Precipitation 0.47 in - - ()
Sea Level Pressure  
Sea Level Pressure 30.01 in    
Wind  
Wind Speed 5 mph ()    
Max Wind Speed 14 mph    
Max Gust Speed -    
Visibility 6.1 miles    
Events Rain    
T = Trace of Precipitation, MM = Missing Value Source: Averaged Metar Reports

Daily Weather History Graph

Daily Weather History Graph

Search for Another Location

Airport or City:

Trip Planner

Search our weather history database for the weather conditions in past years. The results will help you decide how hot, cold, wet, or windy it might be!

Date:

Astronomy

Dec. 25, 2013 Rise Set
Actual Time 5:43 AM AEDT 8:01 PM AEDT
Civil Twilight 5:14 AM AEDT 8:30 PM AEDT
Nautical Twilight 4:39 AM AEDT 9:05 PM AEDT
Astronomical Twilight 4:01 AM AEDT 9:43 PM AEDT
Moon 12:02 AM AEDT (12/25) 12:27 PM AEDT (12/25)
Length of Visible Light 15h 16m
Length of Day
14h 18m
Waning Gibbous, 55% of the Moon is Illuminated
Dec 25
Waning Gibbous
Dec 26
Last Quarter
Jan 1
New
Jan 8
First Quarter
Jan 16
Full

Hourly Weather History & Observations

Time (AEDT) Temp. Dew Point Humidity Pressure Visibility Wind Dir Wind Speed Gust Speed Precip Events Conditions
12:00 AM 67 °F 64 °F 85% 30.12 in - Calm Calm - -   Overcast
12:00 AM 68.0 °F 64.4 °F 88% 30.09 in - Calm Calm - N/A   Overcast
12:30 AM 68.0 °F 62.6 °F 83% 30.09 in - Calm Calm - N/A   Overcast
1:00 AM 68.0 °F 62.6 °F 83% 30.09 in 6.2 mi Calm Calm - N/A   Overcast
1:30 AM 68.0 °F 62.6 °F 83% 30.06 in 6.2 mi Calm Calm - N/A   Overcast
2:00 AM 68 °F 61 °F 73% 30.07 in - Calm Calm - -  
2:00 AM 68.0 °F 60.8 °F 78% 30.06 in 6.2 mi Calm Calm - N/A   Overcast
2:30 AM 68.0 °F 60.8 °F 78% 30.06 in 6.2 mi Calm Calm - N/A   Overcast
3:00 AM 68 °F 60 °F 70% 30.06 in - Calm Calm - -   Overcast
3:00 AM 68.0 °F 60.8 °F 78% 30.06 in - Calm Calm - N/A   Overcast
3:30 AM 68.0 °F 60.8 °F 78% 30.04 in 6.2 mi East 4.6 mph - N/A   Overcast
4:00 AM 68.0 °F 60.8 °F 78% 30.04 in 6.2 mi NE 5.8 mph - N/A   Overcast
4:30 AM 68.0 °F 60.8 °F 78% 30.04 in 6.2 mi East 4.6 mph - N/A   Overcast
5:00 AM 68 °F 62 °F 75% 30.05 in - ENE 4.6 mph - -  
5:00 AM 68.0 °F 62.6 °F 83% 30.04 in - ENE 4.6 mph - N/A   Overcast
5:30 AM 68.0 °F 62.6 °F 83% 30.04 in 6.2 mi East 4.6 mph - N/A Rain Light Rain Showers
6:00 AM 68 °F 62 °F 76% 30.05 in 9 mi East 5.8 mph - - Rain Light Rain
6:00 AM 68.0 °F 62.6 °F 83% 30.04 in 6.2 mi East 5.8 mph - N/A Rain Light Rain
6:30 AM 68.0 °F 62.6 °F 83% 30.04 in - East 5.8 mph - N/A   Overcast
7:00 AM 68.0 °F 62.6 °F 83% 30.06 in 6.2 mi East 8.1 mph - N/A   Mostly Cloudy
7:30 AM 68.0 °F 64.4 °F 88% 30.06 in 6.2 mi ENE 8.1 mph - N/A   Mostly Cloudy
8:00 AM 69 °F 64 °F 80% 30.08 in - ENE 5.8 mph - -  
8:00 AM 69.8 °F 64.4 °F 83% 30.06 in 6.2 mi ENE 5.8 mph - N/A   Mostly Cloudy
8:30 AM 69.8 °F 64.4 °F 83% 30.06 in 6.2 mi ENE 6.9 mph - N/A   Mostly Cloudy
9:00 AM 70 °F 65 °F 81% 30.09 in 9 mi ENE 6.9 mph - - Rain Light Rain
9:00 AM 69.8 °F 66.2 °F 88% 30.09 in 6.2 mi ENE 6.9 mph - N/A   Mostly Cloudy
9:30 AM 69.8 °F 64.4 °F 83% 30.06 in 6.2 mi ENE 6.9 mph - N/A Rain Light Rain
10:00 AM 69.8 °F 66.2 °F 88% 30.06 in 6.2 mi NE 5.8 mph - N/A Rain Light Rain
10:22 AM 68.0 °F 64.4 °F 88% 30.06 in 4.3 mi ENE 8.1 mph - N/A Rain Light Rain
10:30 AM 68.0 °F 66.2 °F 94% 30.06 in 4.3 mi ENE 8.1 mph - N/A Rain Light Rain
11:00 AM 69 °F 66 °F 87% 30.07 in - ENE 8.1 mph - -  
11:00 AM 69.8 °F 66.2 °F 88% 30.06 in 6.2 mi ENE 8.1 mph - N/A Rain Light Rain
11:30 AM 69.8 °F 66.2 °F 88% 30.04 in 6.2 mi ENE 8.1 mph - N/A   Mostly Cloudy
12:00 PM 71 °F 65 °F 77% 30.06 in 9 mi ENE 10.4 mph - - Rain Light Rain
12:00 PM 71.6 °F 66.2 °F 83% 30.04 in 6.2 mi ENE 10.4 mph - N/A Rain Light Rain
12:30 PM 71.6 °F 66.2 °F 83% 30.04 in 6.2 mi ENE 9.2 mph - N/A Rain Light Rain
1:00 PM 71.6 °F 66.2 °F 83% 30.04 in 6.2 mi ENE 8.1 mph - N/A   Mostly Cloudy
1:30 PM 71.6 °F 64.4 °F 78% 30.04 in 6.2 mi ENE 10.4 mph - N/A   Mostly Cloudy
2:00 PM 72 °F 64 °F 69% 30.03 in - NE 8.1 mph - -  
2:00 PM 71.6 °F 64.4 °F 78% 30.01 in - NE 8.1 mph - N/A   Mostly Cloudy
2:30 PM 69.8 °F 64.4 °F 83% 30.01 in 5.6 mi NE 9.2 mph - N/A Rain Light Rain
3:00 PM 70 °F 66 °F 82% 30.01 in 5 mi ENE 9.2 mph - - Rain Light Rain
3:00 PM 69.8 °F 66.2 °F 88% 30.01 in 5.0 mi ENE 9.2 mph - N/A Rain Light Rain
3:30 PM 69.8 °F 66.2 °F 88% 29.98 in 5.6 mi ENE 10.4 mph - N/A Rain Rain Showers
4:00 PM 68.0 °F 66.2 °F 94% 29.98 in 6.2 mi ENE 8.1 mph - N/A Rain Light Rain Showers
4:23 PM 69.8 °F 66.2 °F 88% 29.98 in 6.2 mi ENE 8.1 mph - N/A Rain Light Rain Showers
4:30 PM 68.0 °F 66.2 °F 94% 29.98 in 6.2 mi East 6.9 mph - N/A Rain Light Rain Showers
5:00 PM 69 °F 67 °F 90% 29.99 in - ENE 1.2 mph - -  
5:00 PM 68.0 °F 66.2 °F 94% 29.98 in 6.2 mi ENE 1.2 mph - N/A Rain Light Rain Showers
5:26 PM 68.0 °F 66.2 °F 94% 29.95 in 6.2 mi NE 9.2 mph - N/A Rain Light Rain Showers
5:29 PM 68.0 °F 66.2 °F 94% 29.95 in 6.2 mi ENE 8.1 mph - N/A Rain Light Rain Showers
5:30 PM 68.0 °F 66.2 °F 94% 29.95 in 6.2 mi ENE 8.1 mph - N/A Rain Light Rain Showers
5:39 PM 68.0 °F 66.2 °F 94% 29.95 in 6.2 mi ENE 9.2 mph - N/A Rain Light Rain Showers
5:58 PM 68.0 °F 66.2 °F 94% 29.95 in 6.2 mi ENE 9.2 mph - N/A Rain Light Rain Showers
6:00 PM 68 °F 67 °F 94% 29.96 in - ENE 9.2 mph - -   Overcast
6:00 PM 68.0 °F 66.2 °F 94% 29.95 in 6.2 mi ENE 9.2 mph - N/A Rain Light Rain Showers
6:30 PM 68.0 °F 66.2 °F 94% 29.95 in 6.2 mi ENE 10.4 mph - N/A Rain Light Rain Showers
7:00 PM 68.0 °F 66.2 °F 94% 29.95 in 6.2 mi NE 12.7 mph - N/A   Drizzle
7:30 PM 68.0 °F 66.2 °F 94% 29.95 in 6.2 mi NE 9.2 mph - N/A Rain Light Rain
8:00 PM 68 °F 66 °F 90% 29.95 in - ENE 10.4 mph - -  
8:00 PM 68.0 °F 66.2 °F 94% 29.95 in 6.2 mi ENE 10.4 mph - N/A Rain Light Rain Showers
8:30 PM 68.0 °F 66.2 °F 94% 29.95 in 6.2 mi NE 9.2 mph - N/A Rain Light Rain Showers
9:00 PM 68 °F 65 °F 89% 29.94 in - NE 11.5 mph - -  
9:00 PM 68.0 °F 66.2 °F 94% 29.92 in 6.2 mi NE 11.5 mph - N/A Rain Light Rain
9:30 PM 68.0 °F 66.2 °F 94% 29.92 in 6.2 mi NE 12.7 mph - N/A   Drizzle
10:00 PM 68.0 °F 66.2 °F 94% 29.92 in 6.2 mi NE 11.5 mph - N/A   Drizzle
10:30 PM 68.0 °F 66.2 °F 94% 29.92 in 6.2 mi NNE 11.5 mph - N/A   Light Drizzle
11:00 PM 68 °F 66 °F 90% 29.92 in - NNE 9.2 mph - -  
11:00 PM 68.0 °F 66.2 °F 94% 29.92 in 6.2 mi NNE 9.2 mph - N/A Rain Light Rain Showers
11:12 PM 68.0 °F 66.2 °F 94% 29.95 in 6.2 mi West 13.8 mph - N/A   Overcast
11:29 PM 68.0 °F 66.2 °F 94% 29.92 in 4.3 mi NNW 3.5 mph - N/A Rain Rain Showers
11:30 PM 68.0 °F 66.2 °F 94% 29.92 in 4.3 mi NNW 3.5 mph - N/A Rain Rain Showers